Manistique, MI

2:33 AM EDT on April 29, 2017 (GMT -0400)
Schoolcraft County

Weather History for KISQ - May, 2013

Change the Weather History Date:

Thursday, May 30, 2013

  Actual Average Record
Temperature  
Mean Temperature 55 °F -  
Max Temperature 62 °F 63 °F 78 °F (1969)
Min Temperature 48 °F 45 °F 26 °F (1973)
Degree Days  
Heating Degree Days 10    
Growing Degree Days 5 (Base 50)    
Moisture  
Dew Point 53 °F    
Average Humidity 87    
Maximum Humidity 94    
Minimum Humidity 77    
Precipitation  
Precipitation 0.00 in - - ()
Sea Level Pressure  
Sea Level Pressure 29.88 in    
Wind  
Wind Speed 7 mph (South)    
Max Wind Speed 14 mph    
Max Gust Speed 21 mph    
Visibility 7 miles    
Events Fog    
Averages and records for this station are not official NWS values.
T = Trace of Precipitation, MM = Missing Value Source: NWS Daily Summary

Daily Weather History Graph

Daily Weather History Graph

Search for Another Location

Airport or City:

Trip Planner

Search our weather history database for the weather conditions in past years. The results will help you decide how hot, cold, wet, or windy it might be!

Date:

Astronomy

May. 30, 2013 Rise Set
Actual Time 5:58 AM EDT 9:26 PM EDT
Civil Twilight 5:21 AM EDT 10:03 PM EDT
Nautical Twilight 4:32 AM EDT 10:52 PM EDT
Astronomical Twilight 3:29 AM EDT 11:56 PM EDT
Moon 1:15 AM EDT (5/30) 12:19 PM EDT (5/30)
Length of Visible Light 16h 42m
Length of Day
15h 27m
Waning Gibbous, 62% of the Moon is Illuminated
May 30
Waning Gibbous
May 31
Last Quarter
Jun 8
New
Jun 16
First Quarter
Jun 23
Full

Hourly Weather History & Observations

Time (EDT) Temp. Dew Point Humidity Pressure Visibility Wind Dir Wind Speed Gust Speed Precip Events Conditions
12:15 AM 48.2 °F 46.4 °F 93% 29.90 in 0.2 mi SE 6.9 mph - N/A Fog Fog
12:34 AM 48.2 °F 46.4 °F 93% 29.91 in 0.2 mi SE 5.8 mph - N/A Fog Fog
12:54 AM 48.2 °F 46.4 °F 93% 29.91 in 0.5 mi Calm Calm - N/A Fog Fog
1:15 AM 48.2 °F 46.4 °F 93% 29.91 in 0.8 mi SE 3.5 mph - N/A   Overcast
1:34 AM 48.2 °F 46.4 °F 93% 29.91 in 0.8 mi Calm Calm - N/A   Overcast
1:55 AM 50.0 °F 48.2 °F 94% 29.90 in 10.0 mi ESE 8.1 mph - N/A   Mostly Cloudy
2:15 AM 51.8 °F 50.0 °F 94% 29.91 in 10.0 mi SE 4.6 mph - N/A   Mostly Cloudy
2:34 AM 53.6 °F 51.8 °F 94% 29.91 in 7.0 mi ESE 6.9 mph - N/A   Overcast
2:55 AM 53.6 °F 51.8 °F 94% 29.91 in 7.0 mi SE 6.9 mph - N/A   Overcast
3:15 AM 53.6 °F 51.8 °F 94% 29.90 in 7.0 mi SE 4.6 mph - N/A   Overcast
3:34 AM 53.6 °F 51.8 °F 94% 29.90 in 7.0 mi ESE 6.9 mph - N/A   Scattered Clouds
3:55 AM 55.4 °F 53.6 °F 94% 29.90 in 7.0 mi SE 5.8 mph - N/A   Mostly Cloudy
4:14 AM 55.4 °F 53.6 °F 94% 29.89 in 7.0 mi SSE 6.9 mph - N/A   Overcast
4:35 AM 55.4 °F 53.6 °F 94% 29.88 in 5.0 mi SE 6.9 mph - N/A   Overcast
4:55 AM 55.4 °F 53.6 °F 94% 29.88 in 5.0 mi SE 6.9 mph - N/A   Overcast
5:14 AM 55.4 °F 53.6 °F 94% 29.88 in 4.0 mi ESE 8.1 mph - N/A   Mostly Cloudy
5:35 AM 55.4 °F 53.6 °F 94% 29.89 in 4.0 mi SE 8.1 mph - N/A   Overcast
5:55 AM 55.4 °F 53.6 °F 94% 29.89 in 4.0 mi SE 6.9 mph - N/A   Overcast
6:14 AM 55.4 °F 53.6 °F 94% 29.90 in 3.0 mi SE 8.1 mph - N/A   Overcast
6:35 AM 55.4 °F 53.6 °F 94% 29.88 in 1.0 mi SE 9.2 mph - N/A   Overcast
6:54 AM 53.6 °F 51.8 °F 94% 29.89 in 0.2 mi SSE 8.1 mph - N/A Fog Fog
7:15 AM 53.6 °F 51.8 °F 94% 29.90 in 0.2 mi SSE 6.9 mph - N/A Fog Fog
7:35 AM 53.6 °F 51.8 °F 94% 29.91 in 0.2 mi South 5.8 mph - N/A Fog Fog
7:54 AM 51.8 °F 50.0 °F 94% 29.91 in 0.2 mi South 6.9 mph - N/A Fog Fog
8:15 AM 51.8 °F 50.0 °F 94% 29.91 in 0.2 mi SSE 6.9 mph - N/A Fog Fog
8:35 AM 53.6 °F 51.8 °F 94% 29.91 in 0.2 mi SSE 5.8 mph - N/A Fog Fog
8:54 AM 53.6 °F 51.8 °F 94% 29.91 in 0.5 mi SE 5.8 mph - N/A Fog Fog
9:15 AM 55.4 °F 51.8 °F 88% 29.91 in 4.0 mi SSE 6.9 mph - N/A   Overcast
9:34 AM 55.4 °F 53.6 °F 94% 29.91 in 7.0 mi SSE 10.4 mph - N/A   Scattered Clouds
9:54 AM 57.2 °F 55.4 °F 94% 29.91 in 10.0 mi SSE 8.1 mph - N/A   Clear
10:15 AM 59.0 °F 53.6 °F 82% 29.91 in 10.0 mi South 10.4 mph - N/A   Clear
10:34 AM 60.8 °F 53.6 °F 77% 29.91 in 10.0 mi South 10.4 mph - N/A   Clear
10:55 AM 59.0 °F 53.6 °F 82% 29.91 in 10.0 mi South 9.2 mph 16.1 mph N/A   Clear
11:15 AM 59.0 °F 53.6 °F 82% 29.91 in 10.0 mi South 11.5 mph - N/A   Scattered Clouds
11:34 AM 59.0 °F 53.6 °F 82% 29.91 in 10.0 mi SSW 10.4 mph 16.1 mph N/A   Scattered Clouds
11:55 AM 60.8 °F 53.6 °F 77% 29.91 in 10.0 mi South 9.2 mph - N/A   Scattered Clouds
12:14 PM 59.0 °F 53.6 °F 82% 29.92 in 10.0 mi South 8.1 mph - N/A   Scattered Clouds
12:35 PM 60.8 °F 55.4 °F 82% 29.91 in 10.0 mi South 9.2 mph - N/A   Scattered Clouds
12:54 PM 60.8 °F 53.6 °F 77% 29.91 in 10.0 mi SSE 10.4 mph - N/A   Clear
1:15 PM 60.8 °F 55.4 °F 82% 29.91 in 10.0 mi South 11.5 mph 17.3 mph N/A   Mostly Cloudy
1:35 PM 60.8 °F 55.4 °F 82% 29.91 in 7.0 mi South 10.4 mph - N/A   Mostly Cloudy
1:54 PM 60.8 °F 55.4 °F 82% 29.91 in 7.0 mi SSW 8.1 mph - N/A   Scattered Clouds
2:15 PM 62.6 °F 55.4 °F 77% 29.90 in 10.0 mi SSW 9.2 mph 19.6 mph N/A   Clear
2:35 PM 62.6 °F 55.4 °F 77% 29.89 in 10.0 mi South 11.5 mph 17.3 mph N/A   Clear
2:54 PM 60.8 °F 55.4 °F 82% 29.89 in 7.0 mi SSW 9.2 mph 16.1 mph N/A   Clear
3:15 PM 60.8 °F 55.4 °F 82% 29.89 in 7.0 mi SSW 12.7 mph 20.7 mph N/A   Scattered Clouds
3:34 PM 60.8 °F 55.4 °F 82% 29.87 in 7.0 mi SSW 12.7 mph 19.6 mph N/A   Scattered Clouds
3:55 PM 60.8 °F 55.4 °F 82% 29.86 in 7.0 mi SSW 10.4 mph 18.4 mph N/A   Mostly Cloudy
4:15 PM 62.6 °F 57.2 °F 82% 29.85 in 7.0 mi SSW 13.8 mph - N/A   Scattered Clouds
4:34 PM 62.6 °F 57.2 °F 82% 29.85 in 7.0 mi SSW 10.4 mph - N/A   Scattered Clouds
4:55 PM 62.6 °F 57.2 °F 82% 29.84 in 7.0 mi SSW 6.9 mph - N/A   Scattered Clouds
5:15 PM 60.8 °F 55.4 °F 82% 29.84 in 7.0 mi SSW 10.4 mph - N/A   Mostly Cloudy
5:34 PM 62.6 °F 57.2 °F 82% 29.83 in 7.0 mi SW 8.1 mph - N/A   Scattered Clouds
5:55 PM 60.8 °F 55.4 °F 82% 29.84 in 7.0 mi SSW 8.1 mph - N/A   Scattered Clouds
6:15 PM 62.6 °F 57.2 °F 82% 29.84 in 10.0 mi SSW 8.1 mph - N/A   Clear
6:34 PM 60.8 °F 55.4 °F 82% 29.83 in 10.0 mi SSW 9.2 mph 16.1 mph N/A   Clear
6:55 PM 62.6 °F 57.2 °F 82% 29.83 in 10.0 mi SSW 9.2 mph - N/A   Clear
7:14 PM 60.8 °F 55.4 °F 82% 29.83 in 10.0 mi SSW 9.2 mph - N/A   Clear
7:34 PM 60.8 °F 55.4 °F 82% 29.84 in 10.0 mi SW 5.8 mph - N/A   Mostly Cloudy
7:55 PM 60.8 °F 55.4 °F 82% 29.84 in 10.0 mi SSW 5.8 mph - N/A   Overcast
8:14 PM 60.8 °F 57.2 °F 88% 29.84 in 10.0 mi SSW 6.9 mph - N/A   Overcast
8:35 PM 60.8 °F 57.2 °F 88% 29.84 in 10.0 mi SSW 5.8 mph - N/A   Overcast
8:55 PM 60.8 °F 55.4 °F 82% 29.84 in 10.0 mi SSW 3.5 mph - N/A   Overcast
9:14 PM 60.8 °F 55.4 °F 82% 29.84 in 10.0 mi South 5.8 mph - N/A   Overcast
9:35 PM 60.8 °F 55.4 °F 82% 29.84 in 10.0 mi SSW 4.6 mph - N/A   Overcast
9:55 PM 59.0 °F 55.4 °F 88% 29.84 in 10.0 mi South 4.6 mph - N/A   Scattered Clouds
10:14 PM 57.2 °F 53.6 °F 88% 29.85 in 10.0 mi South 3.5 mph - N/A   Mostly Cloudy
10:35 PM 57.2 °F 53.6 °F 88% 29.85 in 10.0 mi SSE 8.1 mph - N/A   Scattered Clouds
10:54 PM 55.4 °F 51.8 °F 88% 29.85 in 10.0 mi SSE 4.6 mph - N/A   Scattered Clouds
11:14 PM 55.4 °F 51.8 °F 88% 29.85 in 10.0 mi ESE 4.6 mph - N/A   Scattered Clouds
11:35 PM 55.4 °F 53.6 °F 94% 29.85 in 10.0 mi Calm Calm - N/A   Mostly Cloudy
11:54 PM 57.2 °F 53.6 °F 88% 29.85 in 10.0 mi SSE 4.6 mph - N/A   Mostly Cloudy